Probability
10 10 10 10 10 6 6 6 6 6 6 6 6 6 13 10 3 10 10 0 0 0 0 0 0 0 0 0 0 0 0 0 0 0 3 10 10 6
10 10 10 10 10 10 10 6 6 6 6 6 10 10 10 6 6 10 6 6 0 0 0 0 0 0 0 0 0 0 0 0 0 0 0 0 0 3
10 6 6 6 10 10 10 13 6 6 10 10 6 10 6 6 6 6 6 10 6 0 0 0 0 0 0 0 0 0 0 0 0 0 0 0 0 0
6 10 10 6 10 10 10 10 10 10 10 10 10 10 6 6 6 6 6 6 6 6 3 0 0 0 0 0 0 0 0 0 0 0 0 0 0 0
6 10 10 10 6 6 10 10 10 10 6 10 6 6 6 6 6 6 6 6 6 6 6 3 0 0 0 0 0 0 0 0 0 0 0 0 0 0
3 6 3 3 3 3 6 6 6 6 6 6 6 6 6 6 6 6 6 6 6 6 6 6 3 0 0 0 0 0 0 0 0 0 0 0 0 0
3 3 3 3 3 3 3 3 3 6 6 6 6 6 6 6 6 6 6 6 6 6 10 10 10 6 3 0 0 0 0 0 0 0 0 0 0 0
6 3 3 6 3 3 3 3 3 3 3 6 3 6 10 10 6 6 6 6 6 3 6 10 10 10 6 6 0 0 0 0 0 0 0 0 0 0
6 6 6 3 3 3 3 3 3 3 3 3 3 3 6 10 10 10 6 6 3 3 3 10 6 10 10 3 0 0 0 0 0 0 0 0 0 0
6 6 6 6 6 3 3 3 3 3 3 3 3 3 3 3 3 3 3 0 3 3 3 6 3 3 3 6 0 0 0 0 0 0 0 0 0 0
6 6 6 6 6 3 3 3 3 3 3 3 3 3 3 3 0 3 3 3 3 3 3 3 3 3 3 3 0 0 0 0 0 0 0 0 0 0
6 6 6 6 6 3 3 3 3 3 3 3 3 3 3 3 0 3 3 3 6 0 3 0 0 0 3 0 0 0 0 0 0 0 0 0 0 0
6 6 6 6 3 3 3 6 6 3 3 3 3 3 3 3 3 3 3 3 6 3 0 0 0 0 0 0 0 0 0 0 0 0 0 0 0 0
6 6 6 6 3 0 0 3 3 3 3 3 3 3 3 3 3 3 3 3 3 3 6 3 3 3 0 0 0 0 0 0 0 0 0 0 0 0
6 6 6 6 3 3 0 0 0 3 3 3 3 3 3 3 3 3 3 3 3 0 0 0 0 0 0 0 0 0 0 0 0 0 0 0 0 0
3 3 3 3 3 3 3 3 3 3 3 3 3 3 3 3 3 3 3 3 3 3 3 3 0 0 0 0 0 3 3 0 0 0 0 0 0 0
6 6 6 6 6 3 3 3 3 3 3 3 3 3 3 3 3 3 3 3 3 3 3 3 3 0 0 3 3 3 3 0 0 0 0 0 0 0
3 3 6 6 6 6 6 6 3 3 3 3 3 3 3 3 3 3 3 3 3 3 3 3 0 0 0 0 0 0 0 0 0 0 0 0 0 0
3 3 6 6 6 6 6 6 3 3 3 3 3 3 3 3 3 3 3 3 3 3 3 0 0 0 0 0 3 0 0 3 0 0 0 0 0 0
3 6 6 6 6 6 6 3 3 3 3 3 3 3 3 3 3 3 3 3 3 3 0 0 0 0 0 0 0 0 0 0 0 0 0 0 0 0
3 6 6 3 3 3 3 3 3 3 3 3 3 3 3 3 3 3 3 0 0 0 0 0 0 0 0 0 0 0 0 0 0 0 0 0 0 0
6 6 3 3 3 3 3 3 3 0 0 0 3 3 0 0 0 0 0 0 0 0 0 0 0 0 0 0 0 0 0 0 0 0 0 0 0 0
3 3 3 3 3 0 0 0 0 0 0 0 0 0 0 0 0 0 0 0 0 0 0 0 0 0 0 0 0 0 0 0 0 0 0 0 0 0
Height
5842 5841 5840 5839 5838 5837 5836 5835 5835 5834 5834 5834 5833 5832 5831 5831 5831 5831 5832 5831 5832 5831 5831 5831 5832 5832 5832 5833 5833 5834 5834 5834 5835 5835 5836 5836 5836 5837
5837 5835 5834 5833 5832 5831 5830 5829 5828 5827 5827 5827 5826 5825 5824 5824 5824 5824 5825 5825 5825 5825 5825 5824 5824 5825 5825 5826 5826 5827 5827 5827 5828 5828 5829 5829 5829 5830
5831 5829 5828 5827 5825 5824 5823 5822 5820 5820 5819 5819 5819 5818 5817 5817 5817 5817 5817 5817 5817 5817 5817 5817 5817 5817 5818 5818 5818 5819 5820 5820 5820 5821 5821 5821 5822 5822
5824 5822 5821 5819 5818 5817 5815 5814 5813 5812 5811 5811 5811 5810 5809 5809 5809 5809 5809 5809 5809 5809 5809 5809 5809 5809 5809 5810 5810 5811 5811 5812 5812 5813 5813 5813 5813 5814
5817 5815 5813 5812 5810 5809 5807 5806 5804 5803 5802 5802 5802 5801 5801 5801 5800 5800 5800 5800 5800 5800 5800 5800 5800 5800 5801 5801 5802 5802 5803 5803 5803 5804 5804 5804 5805 5806
5810 5808 5806 5804 5802 5800 5799 5797 5796 5794 5793 5793 5792 5792 5792 5791 5792 5791 5791 5791 5791 5791 5791 5791 5791 5791 5791 5792 5792 5793 5793 5793 5794 5795 5795 5795 5796 5797
5803 5800 5798 5796 5794 5792 5790 5788 5787 5786 5784 5783 5783 5782 5782 5782 5782 5782 5782 5782 5782 5782 5782 5782 5782 5782 5782 5782 5783 5783 5783 5784 5784 5785 5785 5786 5787 5787
5795 5792 5790 5788 5785 5783 5781 5779 5778 5776 5775 5774 5773 5773 5773 5772 5772 5772 5772 5772 5773 5773 5772 5772 5772 5772 5772 5773 5773 5773 5773 5773 5774 5774 5775 5776 5776 5777
5787 5784 5781 5779 5776 5774 5772 5770 5768 5766 5766 5765 5764 5763 5763 5763 5763 5762 5762 5762 5762 5762 5762 5763 5763 5762 5762 5762 5762 5763 5763 5763 5764 5764 5765 5765 5766 5767
5779 5776 5773 5771 5768 5766 5763 5761 5759 5757 5756 5754 5754 5754 5753 5753 5752 5752 5752 5752 5752 5752 5751 5752 5752 5752 5752 5752 5752 5752 5752 5753 5753 5754 5754 5755 5755 5756
5771 5769 5766 5763 5760 5758 5755 5753 5751 5748 5747 5745 5744 5743 5743 5742 5742 5742 5742 5742 5742 5742 5741 5741 5742 5742 5743 5742 5742 5742 5742 5743 5743 5744 5744 5745 5745 5745
5764 5762 5759 5756 5753 5750 5747 5745 5742 5740 5738 5737 5735 5735 5734 5733 5733 5732 5732 5732 5732 5733 5732 5732 5732 5732 5732 5733 5732 5732 5732 5732 5733 5733 5734 5734 5734 5735
5757 5754 5751 5748 5745 5742 5740 5737 5735 5732 5730 5728 5727 5726 5725 5724 5723 5723 5723 5723 5723 5723 5723 5722 5722 5722 5722 5723 5723 5722 5722 5722 5723 5723 5723 5724 5724 5724
5749 5746 5743 5740 5738 5735 5732 5730 5727 5725 5722 5720 5719 5718 5716 5715 5715 5714 5714 5713 5713 5713 5713 5713 5713 5713 5713 5713 5713 5713 5713 5713 5713 5713 5713 5714 5714 5714
5741 5738 5736 5733 5730 5728 5725 5722 5720 5717 5715 5713 5711 5709 5708 5707 5706 5705 5705 5704 5704 5703 5703 5703 5703 5703 5703 5703 5704 5704 5704 5704 5703 5703 5704 5704 5704 5704
5733 5731 5728 5725 5723 5720 5717 5715 5712 5710 5708 5706 5704 5701 5700 5699 5698 5697 5696 5696 5695 5695 5694 5694 5694 5694 5693 5693 5694 5694 5694 5694 5694 5694 5694 5694 5694 5694
5725 5722 5720 5717 5715 5712 5710 5707 5705 5703 5701 5698 5696 5693 5692 5691 5690 5689 5688 5687 5687 5686 5685 5685 5684 5684 5684 5684 5685 5685 5684 5684 5684 5684 5684 5684 5684 5684
5717 5714 5712 5710 5707 5705 5702 5700 5698 5696 5694 5691 5689 5686 5684 5683 5682 5681 5680 5679 5678 5678 5677 5676 5676 5675 5675 5675 5676 5675 5675 5675 5675 5675 5675 5675 5675 5675
5709 5707 5704 5702 5700 5697 5695 5693 5691 5689 5686 5684 5682 5680 5678 5676 5674 5673 5672 5671 5670 5669 5669 5668 5667 5667 5667 5667 5667 5667 5666 5666 5666 5666 5666 5666 5666 5667
5701 5699 5697 5694 5692 5690 5688 5685 5683 5681 5679 5677 5674 5672 5670 5669 5667 5665 5664 5663 5662 5661 5660 5660 5660 5659 5659 5659 5658 5658 5658 5658 5658 5658 5657 5658 5658 5659
5694 5691 5689 5687 5684 5682 5680 5678 5676 5674 5671 5669 5666 5664 5662 5661 5659 5657 5656 5654 5654 5653 5653 5652 5652 5651 5651 5651 5651 5651 5650 5650 5650 5650 5649 5650 5650 5651
5685 5683 5681 5678 5676 5674 5672 5670 5668 5666 5663 5661 5659 5657 5655 5653 5651 5650 5648 5647 5646 5646 5645 5645 5644 5643 5643 5644 5644 5643 5643 5643 5642 5642 5642 5642 5642 5643
5677 5674 5672 5670 5668 5666 5664 5662 5660 5658 5656 5653 5651 5649 5647 5646 5644 5643 5642 5641 5640 5639 5638 5638 5637 5637 5636 5636 5636 5636 5636 5635 5635 5635 5635 5635 5635 5635
Wind_Speed
19 19 20 19 19 20 20 21 21 22 22 23 23 23 23 23 23 23 22 22 22 23 23 24 24 24 24 24 24 24 24 24 24 25 25 24 25 25
22 21 21 21 21 21 22 22 22 23 23 23 24 24 25 24 24 24 24 24 24 24 25 25 26 26 26 26 26 26 26 26 26 26 26 26 26 26
23 24 23 23 23 24 24 24 24 24 24 24 25 25 25 25 26 26 27 26 27 27 27 27 28 28 28 28 28 28 28 28 28 28 28 28 28 28
25 24 24 25 26 26 26 26 26 27 27 27 26 26 26 27 27 28 28 28 29 29 28 29 29 29 29 29 29 29 30 30 30 30 30 29 29 29
25 25 25 25 26 27 27 27 27 28 28 29 29 29 29 29 29 29 30 30 30 30 30 29 29 29 30 31 30 30 30 31 31 32 31 31 31 30
26 26 26 27 27 27 27 28 27 28 28 29 29 30 30 31 31 31 31 31 31 31 31 31 30 30 30 31 31 31 31 32 32 33 33 32 32 32
26 26 27 27 27 27 27 27 28 29 29 29 29 30 30 31 31 32 32 32 32 32 32 32 32 31 32 32 32 32 32 33 33 33 33 33 33 33
27 27 27 28 28 28 28 29 29 29 30 29 29 30 31 32 32 32 32 32 32 33 33 32 32 32 32 32 33 33 33 33 32 33 33 33 34 34
27 27 28 28 28 28 28 28 29 30 30 30 30 30 31 31 31 32 32 33 32 32 33 32 32 33 33 32 33 33 32 32 32 31 32 33 34 34
27 26 26 26 26 27 27 27 27 27 29 30 30 30 30 31 31 31 31 32 31 31 32 32 32 32 32 33 33 33 33 32 32 31 31 32 33 34
26 25 26 26 26 26 26 26 26 27 27 28 28 28 28 28 29 31 32 31 31 31 31 31 32 32 32 33 33 32 32 32 32 32 32 32 32 33
27 27 26 26 27 27 27 27 26 26 27 27 27 28 28 29 30 30 30 31 31 30 30 30 30 31 31 31 31 31 32 32 32 32 32 33 33 33
28 28 27 27 27 26 26 26 26 26 26 27 27 28 28 29 29 30 29 29 29 29 29 29 29 29 29 29 29 30 31 32 32 32 32 32 33 33
28 28 28 27 27 26 25 25 25 25 25 26 27 28 28 28 28 28 29 29 29 29 29 28 28 28 28 28 28 29 29 30 30 30 31 31 31 32
27 28 28 27 26 26 26 26 26 25 26 26 26 27 27 27 27 28 28 28 28 29 29 29 28 28 28 28 28 28 29 29 29 29 29 29 30 30
27 27 27 27 27 26 26 26 26 26 26 26 26 26 25 26 26 26 27 27 27 27 28 28 28 28 27 27 27 27 28 28 28 29 29 29 29 30
27 27 27 27 26 26 26 26 26 26 26 25 26 26 26 26 26 26 26 26 26 26 27 28 28 27 27 27 26 27 27 27 28 28 29 29 29 30
27 26 27 27 26 26 26 26 25 26 26 26 26 27 27 26 26 26 26 26 26 26 26 26 26 26 26 26 26 26 27 26 26 26 27 27 28 28
26 26 26 26 26 25 25 25 25 26 26 27 26 26 27 27 26 25 25 26 26 26 26 26 26 25 24 24 24 25 26 26 26 26 25 25 26 26
27 26 26 26 26 25 25 26 26 26 27 27 26 26 26 27 26 25 25 25 25 24 24 24 24 24 23 22 23 24 24 25 25 26 25 25 24 25
27 27 27 26 26 26 26 27 27 27 27 27 27 26 26 26 25 25 24 23 23 23 22 23 23 23 23 22 22 22 23 23 24 24 24 24 23 23
27 27 27 27 26 27 26 26 26 27 27 26 26 26 26 25 24 23 22 21 21 21 21 22 22 22 22 22 22 22 23 23 23 23 22 23 23 23
27 26 26 27 27 26 26 26 26 26 25 25 25 25 24 24 23 22 21 20 20 20 20 20 20 20 21 21 22 22 22 22 22 21 21 21 21 21
Wind_Direction
291 290 288 285 284 281 280 277 276 273 270 269 270 270 271 271 271 271 270 271 270 269 268 266 265 265 264 263 263 264 264 265 266 266 265 265 264 263
292 290 287 286 284 282 280 279 278 276 273 270 268 269 270 269 269 268 269 270 270 270 268 267 266 265 266 265 264 264 264 265 265 265 265 265 265 265
292 291 287 286 286 282 281 280 278 276 275 273 271 270 270 268 268 269 268 269 269 269 270 269 267 265 266 266 265 264 264 264 265 265 266 266 266 266
293 291 288 287 288 286 283 282 280 277 276 274 272 268 268 268 269 269 268 269 270 270 270 269 268 267 266 265 266 265 265 264 264 265 266 266 266 266
294 294 292 290 290 288 284 281 279 278 276 275 273 271 269 269 269 269 268 269 270 271 272 271 270 268 267 266 265 266 266 265 264 265 265 266 267 266
294 294 293 291 289 288 285 283 280 279 277 275 273 271 270 270 270 269 269 270 271 272 272 272 272 270 267 267 266 267 267 266 266 265 265 265 266 266
293 293 293 292 290 288 287 284 281 279 278 276 274 273 272 271 271 271 270 270 271 271 271 272 272 272 270 270 269 269 268 268 267 266 265 264 265 265
295 294 294 293 291 289 286 284 282 281 279 278 276 274 272 271 272 272 271 271 272 271 271 272 273 273 272 271 271 270 270 270 269 267 265 264 265 264
297 297 296 295 293 291 289 287 285 282 281 279 277 275 273 272 272 272 271 271 271 272 272 272 273 273 273 272 272 271 271 270 268 268 267 266 265 265
299 299 299 299 297 295 292 291 290 287 283 281 279 277 275 274 272 272 272 273 272 273 272 272 272 273 273 273 272 271 270 269 269 268 268 268 268 266
299 300 300 300 298 297 296 294 292 289 286 284 282 279 278 277 275 273 274 273 273 273 273 272 272 272 272 272 272 270 269 269 269 270 269 269 269 267
298 299 299 300 299 297 296 295 293 291 289 286 285 283 280 278 277 275 275 275 274 275 274 274 273 272 271 270 269 270 270 270 271 271 271 270 270 268
296 298 298 300 301 298 298 298 296 293 290 288 286 285 282 280 277 275 276 276 277 276 276 275 275 274 272 269 268 269 270 271 271 271 271 271 271 269
295 297 299 299 300 300 299 299 298 297 295 291 288 286 284 281 278 277 277 278 278 276 275 275 275 275 274 272 270 269 270 271 271 271 271 271 271 269
296 298 299 299 299 299 298 299 298 297 297 295 292 287 282 281 279 278 278 278 277 277 275 275 275 274 274 273 272 270 269 270 271 270 271 270 270 270
296 297 298 298 297 297 297 297 298 298 297 297 295 291 285 282 281 280 281 280 279 277 276 275 275 275 274 273 272 271 270 270 270 270 270 270 271 272
296 297 297 296 295 295 295 295 296 297 297 297 296 293 289 285 284 283 283 281 280 278 276 276 276 276 274 273 272 270 270 270 270 270 270 270 270 271
297 296 297 296 295 295 295 294 294 296 297 296 295 291 289 287 286 285 284 283 282 280 278 278 277 277 277 275 272 271 270 271 271 270 271 271 270 270
297 297 297 296 295 295 294 295 296 297 298 296 294 292 290 288 287 286 285 284 283 280 279 279 278 278 279 277 274 273 273 272 273 272 272 271 270 270
295 295 296 296 296 295 294 295 296 297 299 298 295 294 292 291 290 289 287 285 283 281 279 279 278 279 280 277 274 273 274 275 274 273 273 272 270 270
293 294 294 295 295 295 294 294 295 296 297 297 296 295 294 293 291 291 289 286 283 280 278 280 280 280 279 276 274 275 276 277 277 275 273 273 271 269
290 292 293 294 294 294 294 294 295 295 295 295 296 295 295 294 291 290 290 288 285 282 280 279 280 280 278 276 273 274 276 276 277 277 275 274 272 271
289 291 293 294 294 293 294 294 294 296 296 297 297 297 296 293 290 289 288 287 285 283 282 280 280 280 280 277 275 274 275 275 275 275 275 274 273 271